Regional Weather Roundup
Issued by NWS

Home | Current Version | Previous Version | Text Only | Print | Product List | Glossary Off
Versions: 1 2 3 4 5 6 7 8 9 10 11 12 13 14 15 16 17 18 19 20 21 22 23 24 25 26 27 28 29 30 31 32 33 34 35 36 37 38 39 40 41 42 43 44 45 46 47 48

000
ASUS43 KDMX 221607
RWRIA

WEATHER ROUNDUP FOR IOWA
NATIONAL WEATHER SERVICE DES MOINES IA
1100 AM CDT MON SEP 22 2014

NOTE: "FAIR" INDICATES FEW OR NO CLOUDS BELOW 12,000 FEET WITH NO
SIGNIFICANT WEATHER AND/OR OBSTRUCTIONS TO VISIBILITY.

* - THESE STATIONS ARE NOT NWS STATIONS...THUS NOT UNDER NWS
QUALITY CONTROL.  THEY ALSO DO NOT REPORT WEATHER SUCH
AS PRECIPITATION OR FOG.

IAZ001>003-012>014-020>022-031>034-043>046-221700-
   NORTHWEST IOWA

CITY           SKY/WX    TMP DP  RH WIND       PRES   REMARKS
CARROLL *      SUNNY     64  50  59 VRB3      30.31F
CHEROKEE *     SUNNY     63  54  72 S6        30.30S
DENISON *      SUNNY     64  52  63 SW6       30.30S
LE MARS *      SUNNY     64  54  68 S10       30.30S
ORANGE CITY *  SUNNY     64  50  59 SW10      30.29S
SHELDON *      SUNNY     64  52  63 SW10      30.28S
SIOUX CITY     SUNNY     65  53  65 VRB7      30.30S
SPENCER        SUNNY     65  50  58 W7        30.30F
STORM LAKE *   SUNNY     63  54  72 VRB5      30.31S
$$

IAZ055>058-069>071-079>083-090>094-221700-
   SOUTHWEST IOWA

CITY           SKY/WX    TMP DP  RH WIND       PRES   REMARKS
ATLANTIC *     SUNNY     63  52  67 S5        30.32S
AUDUBON *      SUNNY     64  52  63 S5        30.33S
CLARINDA *     SUNNY     64  52  63 CALM      30.34S
COUNCIL BLFS * SUNNY     64  54  68 S7        30.31S
CRESTON *      SUNNY     63  52  67 CALM      30.33F
HARLAN  *      SUNNY     64  52  63 VRB3      30.35S
LAMONI         SUNNY     63  51  65 CALM      30.33S
RED OAK *      SUNNY     66  52  59 CALM      30.32S
SHENANDOAH *   SUNNY     66  52  59 S5        30.33S
$$

IAZ047>049-059>061-072>074-084-221700-
   CENTRAL IOWA

CITY           SKY/WX    TMP DP  RH WIND       PRES   REMARKS
AMES           SUNNY     63  53  70 CALM      30.32S
ANKENY *       SUNNY     63  52  67 CALM      30.32F
CHARITON *     SUNNY     63  50  63 CALM      30.33S
DES MOINES     MOSUNNY   64  53  67 CALM      30.32F
GRINNELL*      SUNNY     61  48  63 S3        30.33S
KNOXVILLE *    SUNNY     61  48  63 CALM      30.32F
MARSHALLTOWN   SUNNY     62  51  67 SW7       30.31F
PELLA *        SUNNY     64  52  63 SW3       30.34S
PERRY *          N/A     64  50  59 CALM      30.32F
$$

IAZ004>006-015-016-023>025-035-036-221700-
   NORTH CENTRAL IOWA

CITY           SKY/WX    TMP DP  RH WIND       PRES   REMARKS
ALGONA *       SUNNY     63  52  67 W7        30.31F
CLARION *        N/A     63  52  67 VRB7      30.31S
ESTHERVILLE    SUNNY     62  50  64 SW7       30.30S
FORT DODGE *   SUNNY     63  52  67 W6        30.32F
MASON CITY     SUNNY     61  53  75 SW5       30.31F
FOREST CITY *  SUNNY     63  52  67 SW6       30.30F
IOWA FALLS *     N/A     63  50  63 SW7       30.32F
$$

IAZ007>011-017>019-026>030-037>042-050>054-066-221700-
   NORTHEAST IOWA

CITY           SKY/WX    TMP DP  RH WIND       PRES   REMARKS
CEDAR RAPIDS   SUNNY     60  45  57 S5        30.32S
CHARLES CITY * SUNNY     63  50  63 W8        30.31F
CLINTON *      SUNNY     57  41  54 S5        30.35S
DECORAH *      SUNNY     61  50  67 VRB7      30.29F
DUBUQUE        SUNNY     58  42  55 SW8       30.32S
MONTICELLO *   SUNNY     61  45  55 VRB5      30.31F
OELWEIN *      SUNNY     63  50  63 SW9G15    30.32S
WATERLOO       SUNNY     63  50  62 VRB6      30.30F
$$

IAZ064-065-067-068-078-221700-
   EAST CENTRAL IOWA

CITY           SKY/WX    TMP DP  RH WIND       PRES   REMARKS
DAVENPORT      SUNNY     60  41  49 CALM      30.33S
IOWA CITY      SUNNY     61  50  67 CALM      30.34S
MT. PLEASANT * SUNNY     64  43  45 CALM      30.34S
MUSCATINE *    SUNNY     61  43  51 CALM      30.33F
QUAD CITIES    SUNNY     59  44  57 CALM      30.33S
$$

IAZ062-063-075>077-085>089-095>099-221700-
   SOUTHEAST IOWA

CITY           SKY/WX    TMP DP  RH WIND       PRES   REMARKS
BURLINGTON     SUNNY     62  46  55 NE5       30.33S
FAIRFIELD *    SUNNY     63  48  59 VRB5      30.33F
FORT MADISON * SUNNY     64  46  52 CALM      30.34R
KEOKUK *       SUNNY     63  48  59 CALM      30.33S
OSKALOOSA *      N/A     63  50  63 CALM      30.33F
CENTERVILLE *  SUNNY     64  52  63 CALM      30.35S
OTTUMWA        SUNNY     63  49  60 VRB5      30.33S
WASHINGTON *   SUNNY     63  46  55 VRB5      30.33S
$$

ABBREVIATIONS USED IN REMARKS
   TC - TEMPERATURES IN CELSIUS
  WCI - WIND CHILL INDEX
   HX - HEAT INDEX
  VSB - VISIBILITY
$$




USA.gov is the U.S. government's official web portal to all federal, state and local government web resources and services.